GFSFLT1_sfc_30mbdewp_096.txt.gz
Dewpoint
44 52 56 57 57 57 56 56 58 59 59 59 59 59 60 61 62 62 61 62 60 58 55 51 46 50 52 49 48 49 49 48
49 54 56 56 56 56 56 56 57 57 57 56 55 56 56 58 59 61 61 61 60 57 56 53 45 51 51 50 48 48 48 48
50 53 56 56 55 55 55 56 56 56 56 56 55 55 55 56 57 58 61 61 60 57 55 54 48 52 50 49 48 48 47 47
49 53 55 55 55 55 55 56 56 56 56 55 54 54 53 53 54 55 57 60 59 58 55 54 52 51 49 48 47 46 46 47
49 53 54 54 54 55 55 56 56 55 55 54 53 52 51 52 52 53 55 58 59 58 56 54 53 51 49 48 47 46 45 44
49 52 54 54 54 54 55 56 55 55 54 53 52 52 51 52 51 52 53 55 56 56 55 54 51 50 49 49 48 46 46 46
48 52 54 54 54 54 55 55 54 55 54 53 52 51 51 51 51 51 52 54 54 54 53 53 51 50 49 49 50 48 47 45
48 52 53 54 54 54 54 55 53 54 54 52 51 50 51 51 51 51 51 52 53 53 53 53 52 51 51 51 50 51 49 48
49 52 53 54 54 54 54 54 53 54 53 52 50 50 50 50 50 50 50 51 52 52 52 52 52 51 51 53 52 51 52 51
50 52 53 53 53 54 54 55 53 53 53 52 50 51 50 50 50 50 49 49 50 50 50 51 52 51 51 52 52 52 54 54
50 52 53 53 54 54 54 54 54 53 53 52 50 51 51 50 49 49 49 48 49 51 51 52 53 52 52 52 52 54 53 54
51 52 52 53 54 54 53 53 54 53 54 53 51 50 51 51 49 49 49 49 49 52 51 52 52 52 53 52 52 53 54 54
49 51 53 53 53 53 53 53 53 55 55 54 52 51 51 51 50 49 50 49 50 50 51 50 51 51 52 53 53 53 53 53
38 50 52 53 53 53 52 53 53 53 55 55 54 53 51 51 51 50 49 51 50 51 50 50 49 50 51 52 52 53 54 54
45 50 52 53 53 53 52 53 53 53 53 54 54 55 54 52 51 51 50 50 50 50 50 50 49 50 50 50 52 53 54 54
42 50 51 53 53 53 53 53 53 54 54 52 52 54 55 55 53 52 52 51 51 50 49 49 49 49 49 50 51 50 52 53
44 46 51 53 53 53 54 53 53 53 52 51 52 52 54 55 54 53 53 53 52 51 50 49 48 48 47 47 49 53 53 53
47 47 47 49 51 54 54 54 54 53 53 53 53 53 52 53 55 54 53 53 53 53 52 51 50 49 47 46 46 49 52 52
45 45 45 45 47 50 50 54 54 54 54 54 54 54 53 52 53 53 55 55 54 53 53 53 53 52 50 47 45 46 45 44

GFSFLT1_sfc_30mbdewp_102.txt.gz
Dewpoint
28 27 29 50 54 57 58 58 58 58 58 58 59 60 60 60 60 60 61 61 60 59 58 57 57 56 55 54 51 52 52 51
31 40 34 51 56 57 57 57 57 57 57 57 58 58 58 59 60 61 61 61 59 58 56 55 55 54 53 52 52 52 52 52
31 46 51 53 56 56 57 57 57 57 57 58 57 57 56 58 60 61 61 61 59 58 56 55 55 54 52 51 51 51 51 51
28 41 52 54 55 56 56 56 57 57 57 56 55 55 55 56 57 58 60 61 59 58 56 55 53 54 52 50 50 50 50 51
31 35 50 54 55 56 55 56 56 56 55 54 53 53 53 54 55 56 58 60 60 58 56 54 53 51 50 49 49 49 50 49
34 33 47 54 55 54 55 56 56 55 55 54 53 53 52 53 54 55 56 57 59 58 57 55 51 51 50 48 49 49 50 49
39 38 50 54 55 55 55 55 54 54 54 53 53 52 52 52 52 53 54 55 57 59 58 55 52 52 51 47 50 50 50 49
40 40 50 54 54 54 54 54 53 54 54 53 52 52 52 52 52 52 53 54 55 57 57 55 52 54 52 50 50 50 49 49
41 41 45 53 54 54 54 54 53 54 53 53 52 52 52 52 52 53 53 53 54 56 56 54 53 54 52 52 51 51 50 49
41 41 46 53 53 53 53 53 53 53 52 52 52 52 52 52 52 53 53 54 54 55 55 54 54 54 53 52 50 51 50 50
42 42 50 53 53 53 53 53 53 53 52 51 51 52 51 51 51 52 52 54 54 54 54 54 54 54 53 53 53 52 51 51
42 44 51 53 53 52 53 52 52 52 52 51 51 51 51 51 51 51 51 53 53 53 54 53 53 53 53 53 52 52 52 52
43 47 50 53 53 52 52 52 52 53 52 51 50 51 51 50 51 51 50 51 53 53 53 53 54 53 53 52 52 52 51 51
46 48 51 53 52 52 51 52 52 52 52 51 50 50 50 50 50 50 50 50 51 52 52 52 52 52 53 52 52 52 51 51
45 46 52 53 53 51 52 52 53 53 51 51 50 51 50 50 50 50 50 49 50 50 51 51 52 52 52 52 52 51 51 50
43 45 46 52 52 52 53 54 54 53 52 52 51 51 51 51 50 49 50 49 49 50 51 51 51 51 52 52 51 51 50 50
43 43 44 45 47 53 53 53 54 54 52 53 52 52 51 51 51 50 49 50 50 49 49 50 50 50 50 50 51 51 51 51
41 41 41 42 44 44 51 54 54 54 54 54 53 53 52 51 51 51 51 50 50 50 50 49 50 50 48 48 49 50 50 51
39 39 38 38 40 42 46 52 55 54 54 54 54 54 54 54 53 52 51 51 51 50 50 50 50 50 48 46 46 48 48 48

GFSFLT1_sfc_30mbdewp_105.txt.gz
Dewpoint
28 31 31 33 37 52 56 59 59 61 61 60 61 60 61 61 61 61 61 61 60 60 61 60 60 58 55 55 55 55 54 53
31 33 38 43 44 53 57 58 59 60 59 58 59 59 60 60 61 61 60 61 61 61 60 59 59 57 55 54 54 53 54 53
34 36 42 49 49 54 57 57 58 59 59 60 59 59 59 59 60 60 60 61 60 59 58 57 57 57 55 54 54 53 53 53
39 39 38 46 52 55 56 57 57 59 59 59 58 57 57 57 58 59 60 61 60 59 57 56 55 54 54 54 54 53 52 52
40 40 41 42 50 55 56 56 57 58 58 57 56 55 54 55 56 57 60 61 59 59 57 56 55 55 54 54 55 54 53 51
41 41 42 44 50 54 55 56 56 57 57 56 55 54 54 54 55 55 58 60 60 58 57 55 55 55 54 54 54 54 54 53
41 42 43 44 53 55 55 55 55 56 56 55 54 54 54 53 53 53 56 56 58 59 56 55 55 54 54 54 54 54 54 53
41 42 43 43 47 54 54 54 54 55 55 55 54 54 53 52 53 54 55 55 56 58 56 55 54 53 52 51 52 53 53 52
41 41 42 43 47 53 53 53 53 54 54 53 53 54 53 53 53 53 54 54 55 57 57 55 54 53 53 51 51 52 52 52
41 42 43 43 47 52 53 53 53 53 54 54 53 53 53 53 53 52 53 54 55 57 57 56 54 54 54 51 51 51 52 53
41 43 43 46 48 53 54 53 53 54 54 54 53 53 53 53 53 52 53 54 54 55 56 55 54 55 53 52 52 52 52 52
43 44 45 48 49 53 53 53 53 53 53 53 53 53 53 53 53 53 53 54 54 55 55 54 54 54 53 52 51 51 51 51
45 45 46 49 50 53 53 53 53 53 53 52 52 52 53 53 52 53 54 54 54 54 54 54 54 53 53 51 50 49 51 51
46 45 44 48 53 52 53 53 53 53 53 52 51 51 52 52 52 52 53 53 54 54 54 53 53 53 52 51 51 49 49 51
44 43 43 45 53 52 52 53 53 53 52 51 50 51 52 52 52 52 52 52 53 53 53 53 53 53 53 52 52 51 50 50
43 42 41 42 45 51 52 53 53 53 52 51 50 50 51 52 51 51 51 51 52 52 53 53 53 53 53 53 52 52 52 51
40 40 39 39 40 44 53 53 54 53 52 52 51 51 51 51 51 51 51 51 50 51 51 52 53 53 52 52 52 52 51 51
38 37 37 37 38 41 46 52 55 54 53 53 52 51 51 51 52 51 50 50 50 50 50 51 51 52 50 50 50 52 51 51
36 35 35 35 37 38 41 51 54 54 54 54 53 53 52 51 51 51 51 50 50 50 50 50 50 51 49 49 49 52 52 52

GFSFLT1_sfc_30mbdewp_111.txt.gz
Dewpoint
28 28 28 28 30 33 38 44 53 59 61 63 61 61 61 61 61 62 63 64 63 64 62 62 63 62 61 61 59 59 58 58
27 28 30 32 35 35 36 38 45 55 57 59 61 62 61 61 60 60 60 61 62 62 61 61 62 60 59 59 58 57 57 58
26 25 29 37 39 40 41 42 44 48 54 57 62 61 61 62 61 61 61 62 61 61 61 62 60 59 58 57 57 55 56 57
19 24 36 39 41 42 43 44 45 48 53 59 61 61 60 61 61 61 61 61 60 61 61 61 59 58 57 57 56 55 54 56
22 32 36 39 41 44 48 47 47 49 54 58 59 59 58 59 60 60 60 61 60 60 61 61 60 58 57 57 57 55 54 53
32 35 36 37 38 42 48 51 50 50 52 57 59 59 58 58 59 59 59 60 60 60 61 60 60 58 57 56 56 55 54 53
33 34 36 35 39 43 46 50 51 51 53 56 59 58 58 56 57 57 58 60 60 60 60 60 60 59 57 56 56 56 55 54
34 33 33 35 38 41 44 45 50 52 54 55 60 59 59 56 57 57 57 58 59 60 60 59 59 58 57 56 56 55 55 55
33 34 38 39 40 42 45 47 47 51 53 55 58 59 59 58 57 56 56 56 57 59 59 58 58 57 57 56 56 55 55 55
35 38 40 42 42 43 43 47 48 49 53 56 57 59 59 57 57 56 55 54 55 57 59 58 58 57 56 56 56 55 55 54
37 39 40 42 42 43 44 48 49 49 53 56 57 57 58 58 56 55 54 54 55 58 58 57 57 56 56 56 55 55 55 55
37 38 40 41 42 42 44 48 51 50 54 55 56 56 57 57 56 55 54 55 55 55 57 57 56 55 55 54 54 55 55 55
41 41 41 41 41 41 42 44 52 53 55 55 55 56 57 56 55 54 54 55 54 54 56 57 56 55 54 53 53 53 53 54
41 40 41 41 40 41 40 41 44 54 55 55 55 55 57 55 55 54 54 54 54 54 54 56 55 54 54 53 53 52 53 53
39 39 39 40 40 39 39 40 42 55 55 55 55 55 56 54 54 54 54 54 53 53 53 55 55 55 54 53 53 52 53 53
37 37 37 38 38 38 38 39 41 54 54 55 54 55 54 54 53 54 54 53 53 53 53 53 54 54 54 53 52 52 52 52
35 35 35 36 36 36 36 37 38 44 54 53 54 54 54 54 53 53 53 54 53 54 53 53 53 52 53 53 52 51 51 51
33 34 34 35 35 35 35 36 37 46 53 53 53 53 53 53 53 53 53 53 54 53 53 53 53 53 52 51 51 52 51 50
33 33 32 33 34 35 35 34 36 48 49 51 53 53 52 52 52 52 52 52 52 53 54 54 53 54 51 51 50 52 52 51

GFSFLT1_sfc_30mbdewp_114.txt.gz
Dewpoint
26 27 27 28 28 35 43 56 61 66 66 65 65 65 63 63 62 63 64 64 66 65 63 63 64 63 63 62 62 62 61 60
29 30 31 34 36 37 39 44 57 62 63 64 64 63 62 62 62 63 63 63 65 64 63 63 62 62 61 61 60 59 59 60
28 30 34 35 36 41 42 42 43 54 60 61 62 63 63 62 62 62 63 64 64 62 63 62 62 61 60 60 58 57 57 59
28 29 35 39 41 43 43 44 45 47 46 58 61 63 62 61 61 60 63 63 62 62 62 63 62 60 59 59 58 57 55 57
22 27 36 39 41 44 45 48 48 48 51 52 62 61 60 60 61 61 62 62 62 62 62 62 61 60 59 58 58 57 56 55
21 33 36 38 41 44 46 49 51 51 51 54 61 60 60 60 60 60 61 61 61 60 62 62 60 59 58 58 57 56 56 55
33 35 36 35 39 43 45 46 47 51 52 54 60 60 59 58 59 59 60 61 61 61 61 61 60 59 58 58 57 56 55 55
32 33 34 38 41 44 45 45 46 48 53 53 58 60 60 59 59 59 59 60 60 61 61 60 60 59 58 58 57 56 55 54
34 37 41 42 43 44 45 45 45 47 49 54 56 60 60 59 59 59 59 59 59 61 61 60 60 59 58 57 57 56 56 55
36 39 42 42 42 43 45 45 46 48 49 51 56 58 60 58 59 60 58 58 58 60 60 58 59 58 58 57 56 56 56 55
37 39 40 41 42 43 44 43 44 47 49 52 56 57 58 59 60 58 58 57 57 60 59 58 58 58 57 57 56 56 55 55
41 41 41 42 43 42 42 42 43 44 47 52 56 56 57 59 59 59 57 56 56 59 58 58 58 57 57 56 56 55 55 55
40 41 41 41 41 41 41 41 41 43 45 53 56 57 57 58 59 58 57 56 57 58 58 57 56 56 56 55 55 55 54 54
38 39 39 39 40 40 40 40 40 41 44 52 56 56 56 57 59 56 56 55 55 54 57 57 56 55 55 55 54 54 55 55
37 37 37 37 38 38 39 38 39 39 42 51 55 55 56 56 57 55 55 55 53 53 57 56 55 55 54 54 54 53 54 54
35 35 36 36 36 36 36 37 37 38 40 46 55 55 56 56 55 54 55 55 54 53 54 55 55 55 54 54 53 53 52 53
34 34 33 33 34 34 35 35 36 37 40 46 55 55 56 56 55 55 55 55 54 53 52 55 55 54 53 53 53 52 52 52
32 33 32 33 33 33 34 35 35 36 41 51 54 55 55 55 55 54 54 54 54 53 52 52 53 52 52 52 52 52 51 52
32 32 31 31 32 33 33 34 34 34 35 39 49 54 54 55 55 54 54 54 54 54 54 53 53 51 51 50 51 53 51 51

GFSFLT1_sfc_30mbdewp_117.txt.gz
Dewpoint
26 27 28 27 27 35 55 61 64 64 65 65 65 63 64 65 66 66 65 65 66 65 64 64 64 62 61 62 61 61 61 60
27 27 28 28 33 38 52 63 64 65 64 64 64 63 63 63 64 65 65 65 65 65 64 63 64 62 62 62 61 61 60 60
26 26 32 35 39 42 45 60 65 65 65 64 64 64 64 63 63 63 64 64 64 65 64 62 63 62 62 61 60 59 59 60
30 34 35 39 41 42 42 46 55 62 63 64 63 63 62 62 61 62 63 63 64 64 63 62 62 61 60 60 59 58 57 58
28 37 39 40 42 46 46 49 50 50 52 60 61 61 61 61 61 61 61 63 63 63 63 62 61 60 59 59 59 58 56 55
28 37 39 40 44 46 48 49 49 50 50 53 60 60 61 61 61 61 60 62 63 63 62 62 61 60 59 59 59 58 57 56
36 38 41 45 45 46 46 46 46 47 50 52 60 60 60 60 60 60 60 60 62 62 62 62 61 60 59 58 58 58 57 56
37 42 43 43 44 44 44 45 44 45 48 49 51 59 60 59 59 59 60 59 60 61 62 61 60 59 59 58 58 57 57 56
42 42 41 42 43 44 43 43 43 44 47 49 50 52 60 59 59 60 59 59 60 61 62 61 60 59 58 58 58 57 56 56
41 41 41 42 43 43 43 42 42 43 44 46 47 50 56 60 59 59 60 60 60 61 61 60 60 59 58 58 57 57 56 55
41 42 42 42 43 43 42 42 41 42 42 43 45 48 51 60 59 58 59 60 60 61 61 60 59 59 58 58 57 57 56 55
40 40 40 40 41 41 41 40 40 40 41 41 43 46 50 58 58 58 59 59 59 60 60 59 58 58 58 57 56 56 55 55
38 38 38 38 38 39 38 38 38 39 39 40 41 45 56 57 58 58 59 58 59 59 58 58 57 57 57 56 55 55 55 54
36 36 36 36 36 37 36 37 37 37 38 38 40 44 57 57 57 58 58 58 58 58 58 57 57 56 56 56 55 55 55 55
34 34 34 34 35 35 35 35 36 36 36 37 39 42 55 57 57 58 57 57 57 58 57 57 56 56 56 55 55 55 55 55
33 33 33 33 33 33 33 34 35 36 36 37 39 42 53 56 57 57 57 56 55 56 57 56 56 55 55 54 54 54 54 54
32 32 31 31 31 32 33 34 34 35 35 36 38 46 54 56 56 56 57 55 54 55 56 55 55 55 54 53 54 53 53 53
31 31 30 31 31 32 32 33 32 33 34 34 35 38 55 56 56 55 56 55 54 54 55 55 54 54 53 52 53 53 52 52
31 31 30 30 31 31 32 31 31 31 31 33 34 35 43 55 55 55 55 55 54 53 54 54 53 49 51 51 52 52 52 52

GFSFLT1_sfc_30mbdewp_120.txt.gz
Dewpoint
26 26 26 27 27 45 57 60 63 64 64 63 64 66 66 65 66 66 66 66 66 65 65 64 63 62 61 61 61 60 61 61
27 27 28 28 28 33 56 58 61 64 64 63 63 63 65 65 65 66 65 66 66 65 64 64 64 62 61 61 61 60 60 61
26 27 28 30 33 36 56 59 62 63 64 64 64 63 63 64 65 65 65 65 65 65 64 64 64 63 61 61 61 60 59 60
26 26 31 37 41 52 60 63 64 64 64 64 63 63 62 62 62 63 65 64 64 64 65 63 64 63 62 61 61 59 58 59
30 34 39 41 45 49 53 58 60 60 63 63 62 61 61 62 62 62 63 64 64 64 63 63 63 63 62 61 60 59 58 57
40 43 45 45 45 45 46 46 48 51 52 55 61 61 61 61 61 61 62 63 63 63 63 63 62 62 61 60 59 58 58 56
43 43 43 43 44 44 44 43 44 46 49 50 52 56 59 60 60 60 60 62 63 63 63 62 62 61 60 59 59 58 58 57
42 42 43 43 42 43 43 43 43 44 44 45 48 48 50 58 60 60 60 60 60 62 63 62 61 61 60 59 59 58 58 57
41 42 43 43 42 42 42 42 41 42 42 42 43 45 47 51 58 60 60 60 60 61 62 62 61 60 60 59 58 58 58 57
42 42 42 41 41 41 41 40 40 40 40 41 42 42 44 48 51 59 60 60 59 60 61 61 60 60 59 59 58 57 57 57
39 38 39 39 40 39 39 39 38 39 39 39 40 40 42 45 48 51 60 60 60 60 61 61 60 59 58 58 58 57 57 56
37 37 37 37 37 37 37 37 37 37 37 38 38 39 40 44 46 51 58 60 60 60 61 61 60 59 58 58 57 57 56 56
35 34 34 35 35 35 35 35 36 36 37 37 38 38 40 42 45 54 58 59 60 60 61 60 59 59 58 57 56 56 56 55
34 33 33 33 33 33 34 34 35 36 36 36 37 38 39 41 44 57 58 58 58 60 60 59 58 58 57 57 56 56 56 55
33 32 31 32 32 32 33 33 34 34 35 36 36 37 39 41 44 53 58 58 58 59 58 58 57 57 56 56 56 55 55 55
32 31 31 31 31 31 32 33 33 33 33 34 35 36 37 40 46 52 57 58 58 58 58 57 57 56 56 56 55 55 55 54
31 30 30 30 30 31 31 32 31 32 31 32 33 35 36 38 42 53 57 57 58 58 57 56 55 55 55 55 55 54 54 54
29 29 29 29 30 30 30 31 31 30 30 30 31 33 34 37 40 53 56 56 56 57 56 55 54 54 53 53 54 54 53 53
30 30 29 29 30 29 30 30 30 29 29 29 30 32 33 35 38 45 56 56 55 55 55 55 54 53 52 52 52 53 52 52

GFSFLT1_sfc_30mbdewp_123.txt.gz
Dewpoint
25 26 32 41 54 59 60 64 65 65 65 64 64 65 65 66 65 65 65 65 66 65 65 64 63 62 62 62 61 61 61 60
26 26 27 28 33 52 59 60 63 65 64 63 63 64 64 65 66 65 65 66 65 65 65 64 63 62 61 61 60 60 60 61
27 27 27 27 28 32 54 58 61 64 64 63 63 64 64 65 65 66 65 66 65 65 64 64 64 63 61 61 61 60 60 61
26 27 27 28 30 34 45 55 59 62 63 63 62 62 62 63 64 64 65 65 65 65 64 64 63 63 61 61 61 60 58 60
26 37 42 45 50 55 58 59 60 62 63 63 62 61 61 62 62 64 64 65 65 65 64 64 64 63 62 62 62 61 59 58
42 44 44 45 45 46 47 49 50 53 56 59 60 60 61 61 61 62 62 64 64 64 64 64 63 63 63 62 61 60 59 58
43 43 42 42 42 43 43 43 44 45 47 47 48 49 51 57 60 61 61 62 63 63 64 63 63 62 62 62 61 60 59 58
42 41 41 41 41 41 42 42 42 43 43 43 44 45 46 48 53 59 60 60 61 62 63 63 62 62 61 61 60 60 59 58
41 41 41 40 39 39 40 40 39 40 40 41 42 42 43 46 51 55 60 60 61 62 62 62 62 61 60 60 60 59 58 58
38 38 38 38 37 38 38 38 38 38 39 39 40 40 40 42 44 47 49 59 61 61 61 62 62 61 60 60 59 58 58 58
36 36 36 36 36 36 36 36 36 37 37 38 38 39 39 40 42 45 48 51 59 60 60 61 61 61 60 59 59 58 58 57
34 34 34 34 34 34 34 35 35 35 36 37 37 37 38 39 41 43 46 49 52 59 59 60 60 60 59 59 59 58 57 57
32 33 33 32 33 33 33 34 34 35 35 35 36 37 38 39 40 42 45 47 54 57 59 60 60 59 59 58 58 57 57 56
32 31 31 31 32 32 33 33 33 33 33 34 35 36 37 37 38 40 43 46 55 56 59 60 60 59 58 58 58 56 56 56
32 31 31 31 31 31 31 32 32 32 32 32 33 34 35 36 37 39 43 47 55 58 59 60 59 59 58 58 57 56 56 56
31 30 30 30 30 30 30 32 31 31 31 31 32 32 34 35 36 39 41 46 54 58 59 59 59 58 57 57 56 56 55 55
30 30 29 29 29 30 30 31 30 31 30 30 31 31 32 33 35 37 40 43 54 57 58 58 57 57 56 56 56 55 55 54
30 28 28 28 27 28 29 30 30 30 29 29 29 30 30 32 34 36 38 41 52 56 57 57 56 56 54 54 54 55 54 54
28 27 27 27 28 28 29 29 28 28 28 27 28 28 29 30 33 34 36 40 48 56 56 56 56 55 53 53 53 54 54 53

GFSFLT1_sfc_30mbdewp_126.txt.gz
Dewpoint
26 27 43 53 58 60 63 64 63 62 63 64 64 64 64 64 64 64 65 65 65 64 64 63 63 63 62 61 61 60 60 60
25 26 28 38 53 58 61 64 64 64 63 63 63 62 63 64 64 64 64 64 65 65 64 63 63 62 62 62 61 60 60 61
24 26 27 29 42 56 59 61 64 64 64 63 62 63 64 64 65 65 64 64 64 65 65 63 63 62 62 61 61 60 60 61
25 27 27 27 30 41 55 59 61 64 64 64 62 63 63 63 64 64 65 65 65 64 64 64 63 63 62 61 62 61 59 60
24 28 40 42 45 40 49 58 60 62 63 63 62 62 61 62 63 64 65 65 65 65 64 64 63 63 62 61 62 61 60 58
37 44 44 45 48 49 51 53 54 58 62 62 61 61 61 61 62 62 62 64 65 65 64 64 64 64 63 62 61 61 60 59
42 42 42 42 42 43 43 44 45 47 50 52 55 57 59 60 59 54 55 59 63 64 64 64 64 64 63 62 62 61 61 60
39 39 39 39 40 41 41 41 41 43 44 45 46 46 48 52 57 58 57 60 61 63 63 64 64 63 63 62 62 61 61 60
37 37 37 38 38 38 39 39 39 40 41 41 41 42 42 44 46 49 56 59 60 61 62 63 63 63 62 62 61 61 61 60
36 36 36 36 36 36 37 37 37 38 38 39 38 39 39 40 40 43 45 49 53 60 61 62 63 62 61 61 60 60 60 59
35 35 34 35 35 35 35 35 35 35 36 37 37 38 38 39 40 41 43 46 48 50 58 60 61 61 61 60 59 59 59 58
33 33 33 34 34 34 34 33 33 33 34 35 36 37 38 38 39 40 42 44 46 48 51 56 59 59 60 59 58 58 58 58
33 32 31 31 32 32 32 32 32 33 33 33 34 36 36 37 37 38 40 42 44 46 51 54 56 58 59 59 58 58 57 57
31 31 30 30 31 31 31 32 32 32 32 32 33 33 34 34 35 37 38 40 42 46 49 54 55 57 59 58 58 57 57 57
31 31 30 30 30 30 31 31 31 31 31 31 31 32 32 33 34 36 37 39 41 44 48 56 56 57 59 58 58 57 57 57
29 29 30 29 29 29 30 30 30 31 30 30 30 31 31 32 33 34 35 37 40 42 47 55 57 58 59 58 57 57 57 56
28 28 28 28 28 28 29 30 29 29 29 29 29 29 29 30 31 32 34 36 39 42 46 55 58 58 58 57 57 57 56 55
26 26 27 27 27 28 28 29 28 28 28 27 27 27 28 29 30 31 33 35 37 39 43 54 57 58 56 55 56 56 55 55
25 25 26 27 27 28 27 28 28 28 26 26 26 26 27 28 29 30 32 34 35 38 42 51 56 57 55 54 54 56 55 54

GFSFLT1_sfc_30mbdewp_132.txt.gz
Dewpoint
19 20 19 16 13 17 28 48 58 61 62 63 62 61 63 62 63 64 65 66 66 65 64 65 65 63 64 65 64 63 62 61
18 20 21 22 22 20 23 38 57 61 62 62 61 61 62 61 61 62 62 64 65 65 64 64 66 62 62 64 64 63 63 62
19 20 22 23 23 23 22 31 55 60 61 62 61 60 59 60 61 61 62 64 64 64 64 62 63 62 63 63 63 63 62 63
28 22 22 21 24 26 24 26 49 58 59 60 60 60 58 58 58 59 61 63 64 64 65 62 62 63 63 63 63 62 61 62
37 36 28 24 21 24 24 27 44 56 59 58 58 58 55 55 57 58 59 62 62 64 64 64 64 64 63 63 64 63 62 60
39 33 36 30 20 22 25 27 39 54 60 59 59 57 57 56 57 58 61 62 62 63 64 65 64 64 64 64 63 63 63 62
37 40 42 41 42 40 38 37 39 52 61 61 61 59 58 59 63 63 63 63 64 65 64 63 62 61 58 59 63 64 63 64
36 37 38 39 42 47 50 49 47 50 53 56 62 63 64 63 63 63 63 63 62 61 62 59 59 60 57 57 60 62 63 63
34 35 36 37 36 38 40 41 42 43 45 46 48 51 55 55 56 61 62 62 63 63 61 60 59 59 59 61 61 62 63 63
32 33 35 36 36 36 36 37 37 39 42 43 44 44 46 48 48 51 55 57 58 60 60 60 60 60 61 61 61 62 63 62
30 31 33 34 36 35 36 36 35 36 38 39 39 41 42 43 44 46 47 47 48 49 52 56 56 61 62 63 63 63 62 62
30 30 31 32 33 33 34 34 34 34 36 37 37 38 39 40 41 42 42 43 44 44 45 47 48 51 57 60 62 62 61 61
29 29 30 29 30 32 32 33 34 34 34 35 36 36 37 37 38 39 40 41 42 42 43 44 45 46 48 50 56 60 60 60
28 28 28 28 29 30 30 31 31 33 32 32 33 34 35 35 36 36 37 38 39 41 41 43 44 46 47 49 51 52 57 59
27 27 28 28 29 30 31 31 31 31 31 31 32 32 32 33 34 34 35 37 37 39 40 41 43 44 46 48 49 51 53 56
27 28 27 28 28 30 30 31 31 31 29 29 29 30 31 32 33 33 35 36 36 37 38 39 41 42 44 46 49 52 52 54
27 28 27 27 27 28 28 29 29 29 28 28 28 29 29 30 30 32 33 34 35 36 36 38 39 41 42 44 46 49 55 54
24 25 25 26 27 28 27 27 27 27 27 26 26 27 27 28 29 30 31 33 34 35 35 36 37 39 41 41 42 44 48 56
23 23 25 25 26 26 27 27 27 26 26 26 26 26 26 26 27 28 30 31 32 33 34 35 36 37 37 36 35 39 48 56

GFSFLT1_sfc_30mbdewp_135.txt.gz
Dewpoint
25 20 19 19 19 21 20 23 31 59 63 64 63 63 63 62 65 63 65 67 67 66 63 65 65 64 64 64 61 62 59 59
36 38 31 22 23 23 25 26 30 46 61 62 62 62 62 62 62 63 63 66 67 66 64 64 65 63 63 65 64 61 60 60
34 36 39 39 37 27 26 28 30 31 58 61 62 62 62 61 61 62 63 65 66 66 65 63 64 63 62 64 64 63 62 63
34 36 39 42 42 39 26 25 28 30 35 60 61 61 61 61 59 59 62 63 66 66 65 64 63 64 61 64 64 63 62 63
33 36 38 40 42 41 34 25 26 29 32 56 60 60 59 59 58 60 60 62 63 65 65 65 64 62 60 65 64 64 62 61
31 34 37 38 40 44 42 29 25 29 32 51 59 60 59 58 57 59 59 63 64 64 64 65 65 65 64 64 64 64 63 61
30 32 35 36 38 40 45 47 27 29 31 47 59 60 59 56 57 57 59 61 63 63 64 64 65 65 64 64 63 62 63 62
30 30 32 35 37 38 40 42 46 49 51 54 59 60 60 57 57 58 60 62 62 63 63 65 65 65 63 60 58 58 58 60
30 29 31 32 35 37 39 40 42 46 47 49 54 55 60 59 59 62 63 63 62 64 65 64 64 63 60 60 59 57 57 59
30 30 30 32 33 35 37 38 40 43 44 46 48 51 54 53 55 62 64 64 63 63 63 63 61 61 60 60 60 58 58 60
30 30 30 31 32 36 37 39 40 41 42 44 45 46 49 50 50 50 51 52 54 58 61 62 62 61 62 61 60 60 60 60
30 30 30 31 31 33 34 34 35 37 39 41 42 43 44 45 45 47 48 49 48 48 49 51 54 57 59 61 61 61 60 61
30 30 30 30 30 31 32 33 34 35 37 37 39 39 41 40 40 40 43 44 44 44 44 45 46 47 49 52 56 60 60 61
30 30 29 29 30 30 31 33 32 33 33 34 35 36 37 38 39 39 39 39 40 41 42 42 43 44 45 46 47 48 52 57
28 28 29 29 30 30 31 31 32 32 32 31 33 32 33 34 35 36 37 38 38 38 39 40 41 42 43 44 44 46 48 50
27 27 28 28 28 29 31 32 32 33 31 30 30 30 31 32 33 34 35 36 37 37 37 38 39 40 40 41 43 45 47 49
25 25 26 26 26 27 28 29 30 30 31 30 29 29 29 30 30 31 33 34 35 36 36 37 37 38 39 37 36 39 41 44
23 24 25 26 26 27 27 28 28 28 28 29 29 28 28 29 28 29 30 31 33 33 34 34 35 36 35 34 33 34 35 39
22 23 25 25 26 27 26 27 27 27 27 27 28 28 27 28 28 28 29 30 31 31 31 31 32 32 32 32 32 33 36 40

GFSFLT1_sfc_30mbdewp_138.txt.gz
Dewpoint
31 33 35 37 40 44 43 33 34 38 36 64 64 64 63 63 64 62 67 67 66 66 66 66 66 65 65 64 63 63 61 60
31 32 34 37 39 41 44 46 46 34 35 55 61 61 63 63 63 64 66 68 67 67 66 65 65 64 65 65 64 63 61 62
31 31 32 35 38 40 43 43 46 41 31 33 60 61 63 63 63 64 64 66 66 66 67 64 65 64 65 65 64 63 62 62
31 30 31 33 35 38 40 42 43 46 34 32 35 60 61 62 62 63 64 66 66 65 66 66 66 64 64 65 64 62 60 62
30 30 30 30 33 37 38 41 43 45 35 32 35 46 58 59 60 62 63 64 66 66 65 65 65 64 63 64 65 63 62 60
30 29 30 30 31 35 36 38 41 44 47 37 34 38 53 59 61 61 62 63 66 66 65 65 64 65 64 65 65 64 63 62
29 30 30 30 31 33 36 37 38 42 46 50 49 39 44 57 58 60 61 63 65 65 65 64 64 65 65 65 64 63 63 62
30 30 31 30 30 31 35 36 36 40 44 48 51 52 46 50 58 60 59 61 62 64 64 63 64 65 65 64 63 62 62 62
31 31 31 31 30 31 33 35 35 37 43 46 48 49 52 55 60 59 58 59 62 64 64 64 64 65 64 63 63 62 61 60
30 31 31 30 30 31 32 33 34 37 40 44 45 48 48 49 55 58 60 60 63 63 64 64 65 65 64 63 61 59 58 58
31 30 31 30 31 32 32 33 33 35 38 41 43 43 45 45 48 51 54 59 63 64 64 64 64 64 63 61 60 60 60 60
30 31 31 31 30 31 31 31 32 34 36 38 41 42 42 43 45 47 48 50 50 50 52 54 60 61 62 61 61 61 61 60
30 30 30 30 30 30 31 32 32 32 34 37 35 38 39 39 41 45 44 45 48 50 50 50 50 50 51 54 58 60 60 60
29 28 30 30 30 30 31 31 31 32 33 34 34 35 36 38 38 42 44 44 43 43 45 46 47 47 47 47 47 48 49 53
27 28 28 28 29 30 31 31 32 32 32 32 33 34 34 35 36 38 40 42 42 40 40 41 42 43 40 39 40 42 44 47
25 26 27 26 26 28 29 30 32 33 32 32 32 32 34 34 34 35 37 38 39 39 39 39 39 37 34 33 34 36 37 39
24 24 25 26 25 27 27 28 29 29 30 31 32 32 31 32 33 32 35 36 36 36 35 35 36 34 31 32 32 32 34 35
23 23 24 25 25 27 26 27 27 28 28 28 29 30 29 30 30 30 30 32 33 33 33 32 32 30 29 29 29 31 33 35
22 24 25 25 25 26 26 26 27 27 27 27 27 29 29 29 29 29 29 29 29 29 31 31 30 29 29 29 28 29 31 34

GFSFLT1_sfc_30mbdewp_141.txt.gz
Dewpoint
31 31 31 31 32 33 35 38 40 41 43 47 50 63 63 64 65 65 67 67 66 67 66 66 67 66 65 65 63 63 61 60
30 31 31 31 31 31 34 36 37 40 41 44 46 49 59 62 62 64 64 66 67 66 66 66 66 65 65 65 63 62 61 61
30 30 30 30 30 31 32 34 36 38 41 43 46 47 54 61 62 62 64 64 67 65 66 66 66 65 65 65 63 62 61 61
29 29 29 30 29 30 31 32 36 38 40 43 46 48 49 54 61 61 62 63 64 66 65 66 65 64 64 64 64 61 61 62
29 29 29 29 29 30 31 32 35 37 38 42 44 47 46 38 49 58 60 61 63 65 65 65 65 64 64 65 64 62 61 60
29 30 29 29 30 29 30 32 34 35 36 40 43 47 49 50 53 59 60 61 63 63 66 66 65 64 64 65 64 63 62 61
30 30 30 29 30 30 30 31 32 35 36 39 42 44 47 50 50 54 58 59 61 62 65 65 66 64 63 64 65 63 62 61
30 29 29 29 30 30 31 32 32 34 35 38 41 43 46 49 51 50 54 57 58 60 64 63 65 65 64 63 65 64 63 61
29 30 30 29 30 30 32 32 32 33 35 37 38 43 44 45 47 50 56 54 57 59 62 64 63 64 65 64 64 64 63 62
29 30 30 31 31 31 32 32 33 33 34 35 37 40 41 42 46 50 53 51 51 53 60 64 63 62 64 64 63 62 62 61
29 30 31 31 31 32 32 33 32 33 33 34 36 36 39 40 44 44 46 47 48 50 55 60 63 63 63 63 62 62 61 59
28 28 30 31 30 30 31 32 32 32 32 33 34 34 37 39 40 42 43 45 45 46 47 61 62 62 63 63 61 60 59 58
27 28 28 27 27 29 31 31 31 31 32 32 33 34 35 36 37 39 40 42 43 44 44 49 53 52 54 55 55 55 60 60
26 28 27 26 26 28 29 31 30 31 31 31 32 33 34 35 35 36 38 39 41 42 42 41 39 39 41 42 43 43 44 45
25 27 26 26 26 28 28 29 31 31 31 31 31 31 33 34 35 35 36 37 37 39 40 38 34 33 32 34 36 37 39 40
25 25 26 25 25 27 27 27 28 30 31 31 31 32 32 33 34 34 33 34 36 36 37 36 33 31 30 30 30 32 34 36
24 25 25 24 24 26 26 26 27 27 29 30 31 31 30 31 31 33 32 32 32 32 33 33 32 31 31 29 29 31 32 34
23 25 24 24 24 26 25 26 26 27 27 27 28 28 28 28 28 29 30 30 31 32 31 31 31 29 30 30 28 29 31 32
22 25 24 24 25 26 25 26 26 27 27 27 27 27 26 26 24 25 26 26 27 29 29 28 28 28 28 27 27 28 29 29

GFSFLT1_sfc_30mbdewp_147.txt.gz
Dewpoint
29 30 30 29 29 29 30 30 31 32 33 35 36 37 38 41 44 47 49 50 58 64 64 66 66 66 65 64 63 62 60 60
29 29 29 30 29 29 30 30 31 32 32 32 34 35 37 39 42 45 48 51 53 63 64 64 65 65 64 64 63 62 61 61
29 29 29 29 29 30 30 30 30 31 32 33 34 35 37 39 42 45 47 49 51 55 63 63 63 64 62 64 63 62 61 61
28 29 29 29 29 29 29 29 30 31 31 33 33 34 37 38 39 40 43 46 49 51 52 62 63 63 62 60 63 62 61 61
29 29 29 29 29 29 29 30 30 31 31 32 32 32 34 37 39 41 42 44 47 50 52 57 62 62 62 62 63 63 62 60
29 29 28 29 29 29 29 30 30 31 32 32 33 32 34 36 37 39 41 42 45 48 52 56 61 61 60 62 61 63 63 60
28 27 28 28 28 28 28 28 29 30 30 31 31 32 34 35 36 37 40 41 42 45 50 54 58 60 60 60 59 60 62 62
28 27 27 26 27 27 28 28 28 29 29 30 32 33 33 34 35 36 37 40 41 43 48 53 55 58 60 60 60 58 57 57
27 27 27 27 27 27 28 27 29 29 29 29 31 33 33 34 34 35 36 38 40 43 47 50 51 54 55 60 60 59 59 57
26 27 27 26 26 27 27 27 28 28 29 30 32 32 33 33 33 35 35 36 39 41 45 46 48 50 54 57 60 58 58 56
26 26 26 26 26 27 27 28 27 28 29 30 30 32 32 33 33 33 33 35 37 40 39 39 39 47 53 55 56 55 55 56
26 26 25 25 25 27 27 27 26 27 28 29 30 31 31 31 32 32 31 33 34 35 36 36 38 42 45 51 51 56 57 54
25 25 24 24 24 26 27 27 27 28 29 29 29 29 29 29 30 31 31 31 32 33 32 34 34 37 37 38 41 43 51 54
24 23 23 22 23 25 26 27 28 28 29 28 29 28 28 28 29 29 29 30 30 29 30 30 31 33 35 36 37 39 44 44
24 23 22 22 23 25 25 26 27 28 28 27 27 27 28 27 27 28 28 29 28 27 28 29 30 31 33 35 36 36 37 39
24 23 22 23 23 24 24 24 26 28 27 26 27 26 25 26 26 27 27 27 27 27 26 27 29 30 31 33 34 34 34 34
23 22 22 23 22 23 23 24 25 26 25 26 26 24 23 23 23 24 25 25 26 25 25 26 26 28 30 31 32 33 33 33
22 21 22 24 21 22 23 23 25 25 24 25 25 24 22 22 21 21 21 22 22 22 23 25 25 27 28 29 29 30 29 29
22 22 22 22 22 22 22 23 24 23 23 24 24 26 22 21 19 20 20 20 20 20 20 21 22 25 26 26 27 26 25 25